Wind_Speed
39 39 38 38 37 36 35 35 35 35 35 35 35 36 36 37 38 39 40 40 40 41 40 40 42 44 43 40 38 40 42 43 44 44 41 40 40 39 38 40 44 48 50 49 49 46 43 42 44 45 45 43 44 45 45 43 42 41 41 42 43 44 47 49 50 50 50 52 53 53 52 52 51 52 51 51 51 50 51 53 53 53 53 54 54 56 57
41 41 40 41 41 39 37 37 37 37 38 38 37 38 38 37 38 39 40 41 42 43 44 45 47 49 50 48 46 46 46 45 44 46 45 42 40 40 40 41 44 48 51 52 52 49 45 44 45 45 44 43 45 46 46 44 45 45 45 46 46 46 48 50 51 53 55 57 59 59 59 59 59 60 60 59 59 59 59 60 60 58 57 57 58 59 59
42 41 43 44 43 41 40 39 39 40 40 39 39 40 40 39 40 41 42 42 43 43 45 47 49 52 53 54 52 50 49 46 44 44 45 44 43 45 46 47 48 48 50 53 53 51 49 47 46 46 46 45 46 46 45 45 47 48 49 50 50 51 52 53 54 56 58 60 61 63 63 64 65 66 67 67 66 66 66 66 65 64 61 60 62 63 64
42 43 44 44 42 42 43 43 42 42 41 42 42 42 42 41 40 41 42 42 42 43 45 47 48 50 51 53 54 53 50 48 45 44 45 46 49 51 51 51 51 50 51 52 52 51 51 49 46 47 48 49 50 49 48 48 50 51 52 54 55 55 55 55 55 57 59 61 62 62 63 63 64 65 67 68 69 69 70 70 69 70 69 68 66 66 67
46 47 48 46 45 46 47 45 43 44 44 45 45 44 44 43 41 40 40 40 41 42 44 44 45 46 47 49 51 53 53 53 51 48 48 49 52 55 55 53 52 52 53 54 52 51 52 52 50 50 51 52 54 55 55 55 55 54 54 56 57 57 56 55 56 57 60 62 62 63 64 64 64 64 65 67 69 69 69 69 68 71 73 73 73 73 73
52 53 53 52 51 50 49 46 45 45 46 47 48 46 46 45 43 41 39 38 37 37 37 38 39 41 44 45 48 51 53 54 53 52 51 52 54 56 57 56 53 53 56 57 56 55 56 57 57 56 56 56 58 59 60 61 60 59 57 57 58 59 58 55 56 58 61 61 61 62 63 63 62 63 64 66 68 69 70 71 73 75 77 78 79 80 77
56 56 57 57 56 53 50 48 47 47 47 48 49 50 49 48 47 45 43 39 34 29 28 31 32 32 33 37 42 47 52 53 52 51 52 54 56 58 60 59 57 56 59 60 60 60 61 63 65 64 62 61 61 61 62 63 63 62 61 60 60 60 59 56 56 59 61 62 62 62 62 63 63 63 64 66 69 71 73 74 74 73 75 77 75 72 68
59 59 60 61 59 55 52 51 50 48 48 48 50 52 52 50 50 48 45 43 40 35 33 33 35 34 31 31 35 41 47 52 54 54 54 55 57 60 62 62 61 60 62 64 65 65 65 67 71 73 70 66 64 63 64 65 66 66 66 66 65 64 63 61 59 61 62 63 63 63 63 65 66 66 66 67 69 71 71 71 68 65 66 69 67 65 65
62 62 63 64 61 56 53 52 51 51 52 52 52 54 54 52 51 49 46 45 45 44 42 41 40 40 41 39 38 39 43 48 53 56 56 55 57 61 65 65 65 64 65 67 69 70 70 72 74 76 75 73 71 70 70 71 72 72 72 72 72 71 70 69 68 67 67 68 69 70 70 71 72 72 71 70 69 70 69 68 67 66 66 68 69 71 73
64 64 65 65 63 58 54 52 52 53 56 56 55 55 54 52 51 50 49 49 49 48 48 47 46 45 46 48 48 46 46 48 52 55 58 59 60 62 65 66 68 70 70 70 71 72 74 75 76 77 76 76 77 77 77 77 77 78 77 77 78 77 77 77 77 76 75 75 76 77 77 77 76 74 73 72 72 73 73 73 73 74 74 74 76 77 78
66 66 66 66 66 62 58 55 54 56 58 58 57 56 55 54 53 52 52 52 52 51 51 50 50 51 53 53 53 52 51 51 52 54 57 60 63 64 64 65 67 70 72 73 73 73 74 75 76 76 76 77 78 79 80 81 81 81 81 81 81 82 82 83 83 82 82 81 80 79 78 76 75 73 72 72 73 75 78 79 80 81 81 82 82 82 83
67 68 68 67 67 66 64 60 59 60 60 59 57 57 56 57 57 56 56 55 54 54 54 53 53 55 58 59 59 59 59 58 57 57 57 58 61 64 66 66 66 68 69 71 73 74 75 75 75 76 76 78 79 80 81 83 84 84 84 84 84 85 85 86 86 86 85 84 83 82 81 79 78 76 76 76 76 78 80 82 84 85 86 87 88 89 90
69 70 70 69 68 68 67 65 63 63 62 61 59 58 58 59 59 58 58 58 56 56 56 56 55 55 58 61 63 63 63 62 62 61 60 59 60 61 62 65 66 68 70 71 72 73 75 76 76 77 77 78 80 82 83 84 85 86 87 87 87 87 87 87 87 87 87 86 86 86 87 86 86 85 84 83 84 84 84 85 86 87 88 89 89 91 91
70 71 71 71 70 70 69 68 67 65 64 64 63 62 61 60 60 61 61 61 60 59 59 58 57 56 56 59 62 64 65 65 65 64 64 64 63 63 63 63 64 66 69 71 74 75 77 78 78 78 78 79 80 81 83 85 86 87 87 88 88 88 87 87 87 88 89 90 91 92 93 93 92 91 91 90 89 89 88 88 88 89 89 89 89 90 91
70 72 72 72 72 72 71 70 69 68 67 67 66 65 63 62 62 62 63 63 63 63 62 62 61 60 58 57 59 62 64 67 68 69 68 68 67 67 67 66 66 66 68 69 72 74 75 76 77 77 78 79 80 81 83 84 86 87 88 89 90 90 90 90 91 92 93 94 94 95 95 95 95 94 94 93 92 92 91 90 90 89 89 89 88 88 88
71 73 74 74 74 74 73 73 72 71 71 70 69 68 66 64 63 64 65 65 64 64 64 65 65 64 62 61 61 61 63 64 67 69 71 72 72 71 71 70 70 70 70 71 72 73 74 75 75 76 77 78 79 81 82 83 84 85 87 88 90 91 92 93 93 93 94 93 93 93 93 94 93 93 92 92 91 90 89 88 88 87 87 86 86 85 84
73 74 75 76 76 75 75 75 75 74 74 73 72 71 70 67 66 65 66 67 67 66 66 67 67 66 66 66 65 65 65 65 66 67 69 71 73 75 75 75 75 74 74 75 75 76 76 77 77 78 79 81 81 82 82 83 83 84 85 87 88 90 91 91 92 92 92 92 92 92 91 91 90 89 88 88 87 86 86 85 85 85 84 84 84 84 84
75 75 76 77 77 77 77 76 76 76 76 76 75 74 74 72 71 69 68 67 68 68 69 69 69 70 70 70 70 69 69 69 69 68 68 69 70 73 75 76 76 76 76 76 77 77 77 77 78 79 80 81 82 82 83 84 84 85 86 87 88 88 89 89 89 90 89 89 89 88 87 87 86 86 86 85 85 85 85 85 85 85 85 85 85 85 85
76 76 77 78 79 79 79 78 78 78 78 78 78 77 77 76 76 74 72 70 68 68 69 70 72 72 73 73 73 73 72 72 72 71 71 70 71 72 73 74 75 75 75 75 76 76 76 76 77 78 79 79 80 81 81 82 83 84 84 85 86 86 86 86 86 86 86 86 85 85 85 85 85 85 85 85 85 86 86 86 87 87 87 87 88 88 88
77 78 79 80 81 81 81 81 81 80 80 80 80 80 80 80 79 78 77 75 73 71 70 70 72 73 73 74 75 75 75 75 74 74 74 73 73 74 74 75 75 75 76 76 76 76 77 77 77 78 78 79 79 80 81 81 82 83 83 84 84 84 85 85 85 85 85 85 84 84 85 85 85 85 86 86 86 87 88 89 89 90 91 91 91 92 92
74 76 79 80 81 82 83 83 83 83 82 82 82 82 82 82 82 82 81 80 78 77 75 73 72 72 73 74 75 76 77 77 76 76 76 76 75 76 76 76 77 77 77 77 77 78 78 78 78 79 79 79 80 80 81 81 82 83 83 84 84 84 85 85 85 85 85 85 86 86 87 87 88 88 88 89 89 90 90 91 92 93 94 94 95 96 96
70 72 75 78 79 81 82 83 84 84 84 84 84 84 84 84 84 84 84 83 82 81 80 78 76 75 75 75 76 77 78 78 78 77 77 77 77 78 78 79 79 79 78 79 79 79 79 79 80 80 80 80 81 81 82 83 83 84 84 85 85 86 86 86 86 87 87 88 88 89 89 90 91 91 92 92 92 93 94 95 95 96 96 97 98 99 100
66 68 70 73 75 78 80 81 82 83 83 84 85 85 86 86 86 86 86 85 84 84 83 82 81 81 80 80 79 79 78 78 78 77 77 78 79 80 81 82 81 81 80 81 81 81 81 81 82 82 82 83 83 83 84 84 85 85 86 87 87 87 88 88 89 89 89 90 91 91 92 93 93 94 95 95 96 96 97 98 99 100 100 100 101 101 101
62 64 66 68 71 73 76 77 78 79 80 81 82 83 84 85 86 86 86 86 86 86 86 86 86 86 86 85 84 84 82 81 80 79 79 80 81 83 84 84 83 82 82 82 83 83 83 84 84 85 85 85 85 86 86 87 87 88 88 89 89 90 90 91 91 92 92 93 93 94 95 95 96 97 98 99 100 100 100 101 102 103 103 102 101 101 101
59 61 63 65 66 68 70 72 73 75 76 78 78 78 79 79 80 82 83 84 85 86 88 89 90 90 89 89 88 88 88 87 85 84 84 84 84 86 87 86 85 84 84 84 84 85 85 86 86 87 87 87 88 88 89 89 90 90 91 91 92 93 93 94 94 95 95 96 97 97 98 98 99 100 100 102 103 103 103 102 102 103 103 103 101 100 98
55 58 60 62 63 64 65 67 69 70 71 73 74 74 75 75 76 77 78 79 80 82 84 87 88 89 90 90 90 90 90 90 89 88 88 88 88 89 89 88 88 87 87 87 87 87 87 88 88 89 89 89 90 90 90 91 92 92 93 94 94 95 96 97 97 98 98 98 99 99 100 100 101 101 101 102 103 103 103 102 101 99 98 97 97 97 95
49 52 55 58 59 60 62 64 65 66 67 68 68 69 71 72 73 74 74 75 76 77 79 81 82 84 85 86 86 87 87 88 89 89 89 89 90 90 90 90 90 89 89 89 89 88 89 89 89 89 89 90 90 90 91 91 92 93 93 94 95 96 96 97 97 98 98 98 99 99 99 99 99 100 100 99 99 99 99 98 97 96 93 90 89 88 88
43 46 48 52 54 55 57 59 61 62 64 66 66 66 66 67 68 69 70 71 72 73 75 76 77 78 79 80 81 81 82 83 84 85 86 86 87 87 87 88 88 88 88 88 88 88 88 88 88 88 88 87 87 87 87 87 88 89 89 90 91 91 92 92 93 93 94 94 94 95 95 95 95 95 95 95 94 94 93 92 91 90 89 87 85 82 80
39 41 43 45 47 49 51 53 56 58 60 63 64 64 63 63 63 65 66 68 69 70 70 71 72 74 75 75 76 76 77 78 79 80 81 81 81 82 82 83 83 83 84 84 84 84 84 84 85 84 84 84 83 83 82 82 82 83 83 84 84 84 84 84 85 85 86 86 87 87 87 88 88 88 88 87 87 86 86 85 84 83 82 82 81 79 77
35 37 38 39 41 43 46 48 51 53 56 58 60 61 61 61 61 61 62 64 65 65 65 66 67 69 70 71 71 72 72 73 74 75 75 76 76 77 78 78 78 78 79 79 79 80 80 80 80 80 80 80 79 78 78 77 77 78 78 78 78 78 78 78 78 78 78 78 79 79 79 80 80 80 79 79 79 79 78 78 77 76 76 76 76 75 73
32 33 35 36 37 39 41 44 46 48 50 52 53 55 57 58 58 59 59 60 61 61 62 62 63 64 65 66 67 68 68 68 69 69 70 70 71 72 73 73 73 73 74 74 75 75 75 75 75 76 76 75 74 74 73 73 73 73 74 74 74 74 73 73 73 73 73 73 73 74 74 74 74 74 74 74 74 73 73 72 72 72 72 71 70 70 69
29 30 31 33 34 36 38 39 41 43 45 46 48 49 52 53 54 55 55 55 55 56 57 58 58 59 61 62 63 64 64 65 65 65 66 66 66 67 67 68 68 68 69 69 70 70 70 71 71 71 72 71 71 70 70 70 70 70 70 71 71 71 70 70 70 70 70 70 70 70 70 70 70 70 70 70 69 69 68 68 68 68 68 67 66 65 64
25 27 28 30 31 33 34 36 38 40 40 41 43 44 46 47 49 50 50 50 50 50 51 52 53 54 56 57 58 59 60 61 62 62 62 62 62 63 63 63 64 64 64 65 66 66 66 67 67 67 67 67 67 66 66 66 66 67 67 66 67 67 67 67 66 66 66 66 66 66 66 66 66 66 66 65 65 65 64 64 64 64 64 63 61 60 60
23 24 26 27 28 30 31 33 35 36 37 37 38 39 40 41 43 44 45 45 45 44 45 46 47 48 50 51 53 54 55 56 57 57 57 58 58 58 59 59 60 60 61 61 61 61 61 62 62 62 62 62 62 62 62 62 62 62 62 62 62 62 62 62 62 62 62 62 62 62 62 62 62 62 62 61 61 60 60 59 59 59 59 58 57 56 55
22 23 24 25 26 26 27 30 33 34 33 33 34 35 36 37 38 39 40 41 40 40 40 41 42 43 44 46 47 48 49 50 51 52 52 53 53 54 54 55 55 56 57 56 56 56 57 57 58 58 58 58 58 58 58 58 58 58 58 58 58 58 58 57 57 57 57 57 57 57 58 58 58 58 58 57 56 56 55 55 55 55 55 54 53 52 50
21 22 23 24 23 23 24 27 30 31 31 30 31 32 33 34 34 36 37 37 36 37 37 38 38 39 40 41 42 43 44 45 46 47 47 48 49 49 50 50 51 51 52 52 51 52 53 53 54 54 54 54 54 54 54 55 55 55 55 54 54 54 53 53 53 53 53 53 53 53 53 54 54 54 54 53 53 52 51 51 51 51 51 51 49 48 47
21 21 22 22 21 20 22 25 27 28 28 28 29 30 31 31 32 33 33 33 33 33 34 35 35 36 37 38 39 40 40 41 42 43 44 44 45 45 46 46 47 48 48 48 49 49 50 51 51 51 51 51 51 51 51 51 52 52 51 51 51 50 50 50 49 49 49 49 49 49 50 50 50 51 51 50 50 49 48 48 48 47 47 47 46 45 44
21 21 21 21 20 19 21 23 24 25 25 26 27 27 28 29 30 30 31 31 31 31 32 33 34 35 36 36 37 38 39 40 40 41 42 42 42 43 43 44 44 45 45 45 46 47 47 47 48 48 47 47 47 47 47 48 48 48 48 47 47 47 46 46 46 46 46 46 46 47 47 47 47 47 47 47 47 46 46 45 44 43 43 43 43 42 42
21 21 21 21 20 20 21 21 22 23 23 24 25 26 26 27 28 29 29 29 29 30 31 32 33 34 35 35 36 37 38 39 39 40 40 40 40 40 41 41 41 42 42 43 43 44 44 44 45 45 45 44 44 44 44 44 45 45 44 44 44 43 43 43 43 43 43 43 44 44 44 44 44 44 44 44 44 44 43 42 41 40 40 40 40 40 39
20 20 20 20 20 21 21 21 22 23 23 23 24 25 26 26 27 28 29 29 28 29 30 32 33 33 34 34 35 36 37 38 38 38 39 39 39 39 39 39 40 40 40 41 41 41 42 42 42 42 42 42 42 42 42 42 42 42 42 41 41 41 41 41 41 41 41 41 41 41 41 41 41 41 41 42 42 41 41 39 38 38 38 38 37 37 36
20 19 20 20 20 21 21 22 22 23 24 24 23 24 25 26 27 28 29 29 28 28 29 31 32 33 33 34 34 35 36 37 37 37 37 37 37 37 38 38 38 38 39 39 39 39 40 40 40 40 41 41 41 41 40 40 40 40 40 39 39 39 39 39 39 38 38 39 39 39 39 39 39 39 39 39 39 39 39 38 36 36 36 36 35 34 33
19 19 19 20 20 21 22 22 23 23 23 24 24 24 24 26 27 28 29 29 28 28 29 30 31 32 33 33 34 35 36 36 36 36 37 36 36 36 37 37 37 37 37 37 37 38 39 39 39 39 39 40 40 39 39 39 39 39 38 38 38 38 38 38 37 37 37 37 37 37 37 36 36 36 36 36 36 37 37 37 36 34 33 33 33 32 31
20 19 19 19 20 21 22 22 23 23 23 24 25 25 25 25 26 27 28 29 29 29 29 30 31 32 32 32 33 34 36 36 36 36 36 35 35 36 36 37 36 36 36 36 36 37 38 37 37 38 38 38 38 38 38 38 37 37 37 37 37 37 37 37 36 36 35 35 35 35 34 34 34 34 34 34 34 34 35 36 35 33 31 30 30 30 30
20 20 19 19 20 21 22 22 23 23 24 24 25 25 25 25 26 27 27 28 29 30 30 30 30 32 33 33 32 33 34 36 36 35 35 35 35 36 36 36 36 35 35 35 35 36 36 36 36 36 37 37 37 37 37 37 36 36 36 36 36 36 36 36 35 35 35 34 34 33 33 32 32 32 32 32 33 33 33 33 34 33 31 29 28 28 28
20 20 20 20 20 20 21 22 23 23 25 25 25 25 25 26 27 27 27 28 29 30 31 31 31 31 33 33 33 32 33 34 35 35 34 34 34 35 35 36 35 35 35 34 35 35 35 35 35 35 35 35 36 36 36 36 35 35 35 35 36 36 35 35 35 34 34 33 33 32 32 31 31 31 31 31 31 31 31 31 32 32 32 29 27 26 25
22 20 20 21 21 21 21 22 23 23 24 25 26 25 25 26 26 27 28 28 29 30 31 31 30 30 31 32 33 33 33 32 32 33 34 34 34 34 35 35 35 34 34 34 34 34 34 34 33 34 34 34 34 34 35 35 35 35 34 34 35 35 35 34 34 33 33 32 32 32 31 31 30 30 30 30 30 29 29 29 29 30 31 30 29 27 25
25 22 21 21 21 21 21 22 23 23 24 25 26 26 26 26 26 26 27 29 30 30 31 30 30 30 31 31 33 33 33 32 31 32 33 34 34 34 34 34 34 34 34 33 33 33 33 33 33 32 33 33 33 33 34 34 34 34 34 34 34 34 33 33 33 33 32 32 32 31 31 31 30 30 29 29 28 28 27 27 27 28 28 29 29 28 27
28 25 22 21 21 22 22 22 23 23 24 25 26 27 27 27 27 27 27 28 29 29 29 30 30 30 30 31 32 33 33 32 32 32 32 33 34 34 34 34 34 34 33 33 33 33 33 32 32 32 32 32 32 32 33 33 33 34 34 34 34 33 33 32 32 32 31 31 31 31 31 31 30 30 29 28 28 27 27 26 26 26 26 26 27 28 28
30 28 25 22 21 21 22 22 23 23 24 25 26 26 26 27 27 28 28 29 29 28 28 28 30 31 31 31 32 33 33 32 33 33 33 33 33 34 34 33 34 34 33 33 33 33 32 32 32 31 31 31 31 31 32 32 33 33 33 33 33 33 33 32 32 31 31 30 30 31 31 31 30 30 29 29 28 27 27 26 26 26 26 25 25 25 26
31 30 28 25 22 21 21 22 22 23 24 24 25 26 26 27 27 28 28 29 29 29 28 28 29 30 31 31 32 34 33 33 33 33 33 33 34 34 34 34 34 34 34 33 33 33 33 32 32 32 31 31 31 31 31 31 32 32 33 33 33 33 32 32 31 31 30 30 30 30 30 30 30 30 30 29 29 28 27 27 26 26 26 25 25 24 24
32 31 30 28 26 23 22 22 22 23 23 23 24 25 26 26 27 27 28 29 29 30 29 29 29 30 30 31 32 33 34 33 33 33 34 34 34 34 34 34 34 34 34 34 34 34 34 33 33 32 32 32 31 31 31 31 31 32 32 32 32 32 31 31 31 31 30 30 30 30 30 30 30 30 30 30 29 29 29 28 27 26 26 26 25 25 24
32 31 30 29 28 27 25 24 23 23 23 23 23 24 24 25 26 26 27 28 29 29 30 30 29 30 31 31 32 32 33 33 33 33 34 35 35 35 35 35 35 35 35 35 35 35 34 34 33 33 33 32 32 32 31 31 31 31 32 32 31 31 31 31 31 31 30 30 30 29 30 30 29 29 29 29 29 29 29 29 28 28 27 26 26 25 25
Wind_Direction
235 235 234 232 231 231 232 231 228 224 223 224 226 226 225 223 221 221 222 223 223 221 218 214 210 206 206 211 214 218 226 230 231 232 230 222 217 218 222 226 230 231 229 228 228 229 232 236 237 237 237 232 225 223 225 225 225 229 232 234 234 233 234 236 240 243 246 250 254 255 256 256 257 258 259 261 262 263 266 269 271 272 274 277 278 279 279
231 233 234 234 233 231 231 233 233 230 227 226 226 227 227 226 225 224 222 222 222 222 220 217 214 212 211 213 215 219 225 229 231 232 231 225 216 215 219 225 229 231 230 229 229 230 232 236 238 237 234 230 227 227 227 227 228 230 233 235 235 234 236 240 244 248 251 252 253 254 255 256 258 260 261 262 261 262 265 267 269 269 270 272 274 275 277
231 232 233 235 235 234 232 232 233 233 232 231 231 230 230 229 229 229 227 224 222 222 222 221 219 217 217 218 220 223 227 230 229 228 228 225 218 215 221 227 229 229 230 229 229 230 232 235 236 235 232 229 228 229 229 228 230 231 232 234 234 235 240 246 251 253 254 255 256 256 258 259 260 262 263 264 263 263 263 265 266 266 267 268 269 270 271
232 231 232 234 235 235 232 230 231 232 233 233 233 233 233 232 230 231 232 231 228 225 224 225 225 224 224 224 225 226 227 229 228 227 227 225 222 221 224 229 230 230 231 232 230 230 231 230 230 231 232 230 229 229 228 228 229 230 232 235 237 241 247 253 255 254 253 253 255 256 259 260 262 263 264 264 264 263 264 265 266 266 265 266 267 267 268
230 230 231 230 230 233 232 229 230 232 234 235 235 235 236 235 232 230 230 231 233 232 231 230 231 231 230 230 230 229 229 229 231 232 230 226 225 224 225 229 231 230 231 232 231 230 229 226 224 226 229 229 229 230 230 230 231 231 233 237 241 245 251 254 254 253 252 253 254 255 257 259 261 262 263 263 263 263 265 267 268 269 268 267 266 267 268
227 229 231 231 231 233 233 231 229 231 232 235 237 237 238 238 236 233 228 226 229 235 237 237 237 237 236 236 237 236 235 234 233 231 229 227 226 226 226 228 230 229 229 230 231 231 230 228 225 225 228 230 230 230 231 232 233 234 237 242 246 250 253 253 250 249 251 253 254 254 255 257 259 259 259 260 261 262 264 267 270 271 270 268 267 268 271
229 230 232 234 234 235 234 232 232 232 233 235 237 238 239 239 238 237 232 226 221 218 222 228 229 230 235 239 240 240 240 238 235 232 230 229 227 226 227 227 228 228 228 229 231 231 231 231 230 228 228 229 230 230 231 232 234 236 240 245 248 251 253 252 248 246 248 251 253 254 255 255 257 258 259 260 262 264 267 269 270 270 269 270 270 271 271
230 232 234 236 237 236 234 233 233 234 234 236 237 239 239 239 239 239 237 232 225 213 209 214 215 210 215 227 236 240 240 238 236 233 232 232 230 228 228 228 228 228 227 227 230 232 233 234 234 233 231 230 230 231 232 234 237 240 244 247 250 252 253 252 249 246 247 249 251 253 254 255 257 259 262 264 264 264 265 266 266 266 268 270 272 272 271
231 233 236 239 241 240 237 236 235 234 234 236 236 237 238 239 240 242 242 239 236 228 221 221 220 212 207 211 221 230 236 236 235 232 232 233 233 232 230 229 230 230 229 227 229 231 233 235 237 238 237 235 234 234 235 237 240 243 246 248 251 253 255 255 254 252 251 251 252 254 256 258 260 261 262 263 262 260 260 261 261 263 265 267 269 271 272
232 234 236 241 245 245 242 240 238 237 236 236 237 236 237 239 240 242 243 243 243 240 234 230 228 222 216 213 214 220 228 233 234 232 230 231 232 233 232 230 231 232 232 231 231 232 234 236 239 241 242 240 239 239 239 240 242 244 246 248 250 252 254 256 257 258 257 257 258 260 261 262 263 263 262 261 260 258 259 259 260 261 263 264 266 268 270
234 235 237 240 244 247 246 243 241 241 240 239 239 239 239 240 241 241 242 242 242 244 243 239 233 229 226 225 222 222 226 231 233 234 233 232 232 233 233 232 232 233 234 235 236 236 238 239 241 243 245 245 244 243 244 244 245 246 247 248 250 251 253 256 258 259 260 261 262 263 263 263 263 263 263 262 261 260 259 260 261 262 262 263 265 266 268
234 236 237 239 241 244 246 246 244 243 243 242 241 240 241 242 243 243 243 242 241 242 243 243 240 235 233 233 232 232 232 233 234 236 237 236 236 235 235 235 235 235 236 237 238 240 242 243 245 246 247 247 247 247 247 248 249 249 250 251 252 253 255 256 258 260 261 262 263 264 264 264 264 264 264 264 263 263 263 263 263 263 264 264 265 266 267
233 236 238 239 241 242 244 245 245 244 244 243 242 240 240 241 244 244 244 244 244 243 242 242 241 239 237 237 239 240 240 240 240 240 240 240 240 240 239 239 239 240 240 241 242 243 245 246 248 248 249 248 248 249 250 250 251 252 254 255 256 256 257 258 259 260 261 263 264 265 266 267 267 267 267 266 266 266 266 265 265 265 265 266 266 267 268
233 236 238 239 241 242 243 245 245 245 245 245 243 241 240 240 241 242 243 244 246 246 246 244 242 241 240 240 241 243 244 245 246 245 244 244 244 244 243 242 242 243 244 244 245 246 248 249 250 251 251 251 251 251 251 251 252 253 255 257 258 259 260 260 261 261 262 264 265 267 267 268 268 268 267 267 267 267 267 267 267 267 267 267 267 268 269
233 236 238 239 241 242 244 245 246 246 246 246 245 244 242 240 239 240 241 243 245 246 247 247 246 245 244 243 242 242 243 245 246 247 248 248 247 247 247 246 246 245 245 245 246 247 249 251 252 253 254 254 254 254 253 253 253 254 255 257 258 259 260 261 262 262 263 264 265 266 267 267 267 268 268 268 267 267 267 267 267 267 268 268 268 269 269
233 235 237 239 241 242 244 245 246 247 248 248 248 247 245 242 240 238 239 241 242 243 244 246 247 247 247 246 244 244 243 244 244 245 247 248 249 250 250 250 250 249 249 249 249 250 251 252 254 255 256 256 256 256 256 256 256 256 256 257 258 259 259 260 261 263 264 265 265 266 267 267 268 268 268 269 269 268 268 268 268 268 268 268 268 268 268
232 234 236 239 241 242 243 244 246 247 248 249 249 250 250 248 245 242 240 240 240 241 242 244 245 246 247 247 246 245 244 244 244 244 245 246 248 249 250 251 252 253 253 253 253 254 255 255 256 257 257 257 258 258 258 259 259 260 260 260 260 260 261 262 263 264 265 266 267 268 268 269 269 270 270 270 270 270 270 269 269 269 268 268 268 268 267
233 234 236 238 240 241 242 243 244 246 247 249 250 251 252 252 251 249 246 244 241 241 241 242 244 244 246 246 247 247 246 246 246 245 245 245 246 248 249 250 252 253 254 255 255 256 256 257 257 258 258 258 259 259 260 260 261 261 262 262 262 263 263 264 265 266 266 267 268 269 270 271 271 272 272 273 273 273 273 273 272 271 271 271 271 271 270
236 236 236 237 239 240 242 243 244 245 246 247 249 250 251 252 253 253 252 250 247 244 243 243 244 245 245 246 247 248 248 249 249 248 247 247 246 247 248 249 250 251 252 253 254 255 256 256 257 257 258 258 259 260 260 260 261 262 262 263 264 264 265 265 266 267 268 269 269 270 271 271 272 273 273 274 275 275 275 275 275 275 275 275 275 275 275
238 238 239 239 240 241 242 242 243 244 245 246 247 248 250 251 252 253 254 253 252 250 248 246 246 246 247 248 249 250 250 251 251 251 251 251 251 250 250 250 251 252 252 253 254 255 256 256 257 258 258 259 260 260 261 261 262 263 263 264 265 266 266 267 268 268 269 270 270 271 272 272 272 273 274 274 274 275 275 275 276 276 276 276 276 276 276
240 241 241 242 243 243 244 244 245 245 245 246 246 247 248 250 251 252 253 254 254 254 253 252 250 249 249 249 250 250 251 252 252 253 253 254 254 254 255 255 255 255 255 256 256 257 257 258 259 259 260 260 261 261 262 262 263 263 264 264 265 266 266 267 268 268 269 270 270 271 271 272 272 272 272 273 273 273 273 273 274 274 275 275 275 276 276
242 242 243 244 245 246 246 247 247 248 248 248 248 248 249 250 251 251 252 253 254 255 256 256 256 255 254 253 252 251 252 252 253 254 254 255 256 257 257 257 258 258 258 259 259 260 260 261 261 262 262 262 263 263 263 263 264 264 265 265 266 266 267 267 268 268 269 269 270 270 271 271 272 272 273 273 273 273 273 273 273 274 274 274 275 275 275
244 244 244 245 246 247 248 248 249 249 250 250 250 250 250 251 251 252 253 254 255 255 256 257 258 258 258 257 257 256 255 255 255 255 256 257 257 258 258 258 258 259 259 260 261 261 262 262 263 263 264 264 264 264 265 265 265 266 266 267 267 268 268 269 269 269 270 270 271 271 272 272 273 273 274 274 274 274 274 274 274 274 274 274 275 275 276
249 249 248 248 247 248 248 249 250 250 251 251 251 251 251 251 252 252 253 254 255 255 256 257 257 258 258 259 260 260 260 260 259 259 258 258 258 259 259 259 259 259 260 261 261 262 262 263 263 264 264 265 265 265 266 266 267 267 268 268 268 269 269 269 270 270 270 271 271 271 272 272 272 273 273 274 274 274 274 274 275 275 275 275 275 276 276
251 252 252 251 251 251 251 251 252 252 252 253 253 253 253 253 253 253 253 254 254 254 255 256 256 257 257 258 258 259 260 261 261 261 261 260 260 260 261 261 261 261 261 261 261 262 262 262 263 263 264 264 264 265 265 266 267 267 267 268 268 269 269 269 270 270 270 271 271 271 271 272 272 272 273 273 274 274 274 274 274 275 276 277 277 278 278
249 251 251 252 252 253 253 253 254 253 253 253 254 254 255 255 255 254 254 254 254 254 254 254 255 256 256 257 257 257 258 259 260 260 261 261 261 261 262 263 263 263 263 263 263 263 263 263 263 263 264 264 264 264 265 265 266 266 267 267 267 268 268 269 269 270 270 270 271 271 271 272 272 272 273 273 274 274 275 275 276 276 276 276 277 278 279
249 249 250 251 251 251 252 253 254 255 255 255 254 254 254 254 254 254 254 254 254 254 254 254 254 255 255 256 256 257 257 258 259 259 260 260 261 261 262 263 264 264 264 265 265 265 265 265 265 265 265 265 265 265 266 266 266 266 267 267 267 268 268 269 269 270 270 271 271 271 272 272 272 273 273 274 274 275 275 276 277 277 277 277 277 277 277
253 250 249 250 250 251 251 252 253 254 255 255 255 255 253 253 253 254 254 254 254 254 254 254 255 255 255 255 256 256 257 257 258 258 259 260 260 261 262 262 263 264 264 265 265 266 266 266 266 267 267 266 266 266 266 267 267 267 267 267 267 267 268 268 269 269 270 270 271 271 272 272 272 273 273 274 274 275 275 276 276 277 278 278 278 277 276
257 254 251 250 250 250 250 250 251 251 252 253 254 255 255 254 254 254 254 254 254 254 254 255 255 256 256 257 257 257 257 257 258 258 259 260 260 261 261 262 263 263 264 264 265 265 266 266 267 267 267 267 268 268 268 268 268 268 268 268 268 268 268 268 269 269 269 270 270 270 271 271 272 272 272 273 273 274 274 275 276 276 276 277 277 277 276
261 258 256 253 251 251 250 250 250 250 250 251 253 254 255 255 255 254 254 254 254 254 254 254 255 255 256 257 258 258 258 258 259 259 259 260 261 261 262 262 263 263 264 265 265 266 266 266 267 267 268 268 268 269 269 269 269 269 270 270 270 270 270 270 270 270 270 271 271 271 271 272 272 272 273 273 274 274 274 275 275 276 276 276 276 276 276
263 261 259 257 255 252 251 251 251 251 251 252 252 253 254 255 255 254 254 254 255 255 255 255 254 255 255 256 257 258 258 259 259 259 260 260 261 261 262 263 263 264 264 265 265 266 266 267 267 268 268 269 269 269 270 270 270 270 271 271 271 271 271 271 271 271 271 272 272 272 272 272 273 273 273 274 274 274 275 275 275 275 275 275 276 276 276
265 262 260 258 257 255 254 253 252 252 252 252 252 252 252 253 254 255 254 254 254 254 255 255 255 255 255 255 256 257 257 258 258 259 259 259 260 261 261 262 263 263 264 264 265 265 266 266 267 267 268 268 269 269 270 270 270 270 271 271 271 272 272 272 272 272 272 272 272 272 272 272 273 273 273 274 274 274 275 275 275 275 276 276 276 276 277
269 265 261 259 257 256 256 255 254 253 253 253 253 252 252 252 253 254 255 255 254 254 254 255 255 255 255 255 256 256 257 257 258 258 259 259 260 260 261 262 262 263 263 264 264 265 265 266 266 267 267 268 268 269 269 269 270 270 270 270 271 271 272 272 272 272 272 272 272 272 272 272 272 273 273 273 274 274 275 275 275 275 276 276 276 277 277
275 269 264 260 258 257 256 256 255 255 255 255 255 255 254 253 253 254 255 255 255 255 254 254 254 255 255 255 255 256 256 257 257 258 259 259 260 260 261 261 262 263 263 264 264 265 265 266 266 267 267 268 268 268 269 269 269 270 270 270 271 271 271 272 272 272 272 272 272 272 272 272 272 272 272 273 273 274 274 275 275 276 276 277 277 277 278
280 273 267 263 260 258 257 256 256 257 257 257 257 257 256 255 254 254 254 255 255 255 255 254 254 254 254 254 255 255 256 256 257 257 258 258 259 259 260 261 262 262 263 264 264 265 265 266 266 267 267 268 268 269 269 269 270 270 270 270 270 270 271 271 271 271 271 271 272 272 272 272 272 272 273 273 274 274 275 275 276 276 277 278 278 279 279
284 277 272 268 265 261 258 257 257 258 258 257 257 258 258 257 256 255 255 256 256 256 256 256 255 255 255 255 256 256 256 257 257 258 258 258 259 260 260 261 262 263 264 264 265 265 266 266 267 267 268 268 268 269 269 269 270 270 270 270 270 270 270 270 271 271 271 271 271 271 272 272 272 273 274 274 275 275 276 276 277 278 279 280 280 281 281
288 281 276 273 270 266 261 259 259 260 259 259 258 258 259 259 259 258 258 258 258 258 258 258 258 258 257 257 257 258 258 258 258 259 259 259 260 260 261 262 263 263 264 265 266 266 266 267 267 268 268 268 269 269 269 270 270 270 270 270 270 270 270 270 271 271 271 271 271 272 272 272 273 274 274 275 276 276 277 277 278 279 280 281 282 282 282
292 285 279 276 273 269 265 263 263 262 261 260 259 258 258 259 259 259 259 259 259 259 259 259 259 259 259 260 260 260 260 260 260 261 261 261 261 261 262 262 263 264 265 266 266 266 267 268 268 269 269 269 269 270 270 270 270 270 270 270 270 270 271 271 271 271 272 272 272 272 272 273 273 274 275 276 277 278 278 279 279 280 281 281 282 283 283
294 288 283 279 275 270 267 265 265 264 261 259 258 258 257 257 257 258 259 259 259 259 260 260 260 260 260 261 262 262 262 263 263 263 263 263 263 263 263 264 265 265 266 266 267 268 269 269 270 271 271 271 271 271 272 272 272 272 272 272 272 271 271 271 271 272 272 272 272 273 273 273 274 275 276 277 278 279 280 280 281 282 283 283 284 284 284
297 291 286 282 278 273 269 267 265 264 263 260 258 258 258 258 257 258 258 258 258 258 259 261 261 261 262 262 262 263 263 264 264 264 264 264 264 265 265 265 265 266 267 268 269 269 270 271 272 272 272 273 273 273 273 273 273 273 273 273 273 272 272 271 271 271 271 272 272 273 273 274 275 277 278 279 280 280 281 282 283 284 285 285 285 285 285
300 293 287 283 280 276 273 270 267 266 266 265 262 261 260 260 260 260 260 260 259 258 258 260 261 262 263 264 264 264 264 264 264 264 264 264 264 265 265 265 266 266 267 268 269 270 271 271 272 273 273 274 274 274 274 274 274 274 274 273 273 272 271 271 271 271 271 271 272 272 274 275 277 278 279 280 281 282 283 283 284 286 287 287 287 286 285
304 296 289 284 280 277 274 272 270 269 269 268 267 264 262 262 262 262 263 263 263 261 260 261 262 263 264 264 265 266 266 266 265 265 265 265 265 266 266 266 266 267 268 269 270 271 272 273 273 274 274 274 274 274 274 274 274 273 273 273 272 272 271 271 271 270 270 270 271 273 274 275 276 277 278 279 280 282 283 284 285 286 287 287 287 287 286
310 301 293 286 282 278 276 275 273 272 270 269 268 267 265 264 263 263 265 265 265 264 263 263 263 264 264 264 265 266 267 267 267 266 266 267 266 266 266 266 267 268 269 270 271 272 272 273 274 274 274 274 274 274 274 274 274 273 272 272 272 271 271 271 271 271 271 271 272 273 274 275 276 276 277 278 278 279 280 283 284 286 286 286 287 287 287
316 307 299 291 285 281 279 277 276 275 273 271 270 270 269 267 265 264 264 265 266 267 267 266 265 266 266 265 264 264 266 267 268 267 267 266 266 266 266 267 267 268 268 269 270 271 272 274 274 274 274 274 274 274 274 274 273 272 272 271 271 271 271 271 271 271 272 272 273 274 274 275 276 276 276 276 277 278 279 281 283 285 286 286 285 286 286
321 313 304 296 290 285 281 279 277 276 275 274 273 272 271 270 269 268 267 266 266 266 267 266 266 266 268 268 268 266 264 265 266 267 266 265 264 264 265 266 266 267 268 269 270 271 272 274 274 275 275 275 274 274 274 274 273 272 271 270 270 271 271 271 271 271 272 273 274 274 275 274 275 275 276 276 277 278 279 280 282 284 286 286 285 284 283
324 317 309 301 294 289 285 282 281 279 278 278 277 275 272 271 270 271 271 270 269 268 268 268 268 267 268 268 269 268 266 265 264 265 265 265 264 263 264 265 266 267 268 269 270 271 272 273 274 275 275 275 274 274 274 274 273 272 271 270 269 270 270 271 271 272 273 273 274 275 274 274 274 274 275 276 277 278 279 280 282 284 286 287 287 285 283
326 320 313 304 297 292 288 285 283 282 281 281 281 280 279 276 274 273 272 271 271 272 272 272 272 270 269 268 268 268 268 267 265 264 264 265 265 264 264 265 266 267 268 269 271 272 273 274 275 276 276 276 275 274 274 273 273 273 272 271 270 270 270 271 272 273 273 274 275 275 275 275 274 275 275 276 277 277 278 279 280 281 283 286 287 288 287
326 322 316 308 300 295 291 288 285 283 282 282 282 283 283 282 281 279 277 275 274 274 274 274 274 272 271 270 269 268 268 268 267 265 264 265 265 266 266 266 267 268 269 270 271 271 272 274 274 275 276 276 276 274 273 273 273 273 273 273 272 272 272 272 272 273 273 274 275 275 276 276 276 277 277 277 278 278 278 278 278 279 279 281 284 286 288
326 322 318 312 304 297 293 290 287 285 283 282 282 282 282 282 282 282 281 279 278 277 275 274 274 274 273 272 271 270 270 269 268 267 266 265 265 266 266 267 267 268 268 269 270 271 272 273 274 274 275 275 275 274 273 273 273 273 273 273 273 274 274 274 273 273 273 273 274 275 276 277 278 279 279 279 280 280 280 280 280 279 279 278 279 281 283
327 323 319 315 309 302 296 291 289 287 285 284 283 282 282 282 282 282 281 281 280 280 278 276 275 274 274 273 272 271 271 270 269 269 268 267 266 266 267 267 267 268 269 270 270 271 272 273 273 274 274 274 274 274 273 273 272 272 272 273 273 274 274 274 274 274 274 274 274 275 276 277 278 279 280 280 281 281 281 281 281 281 281 280 279 278 279
329 324 320 317 313 308 302 297 293 290 288 286 284 283 282 282 281 281 281 280 280 280 280 278 276 275 273 272 271 271 271 271 270 270 269 269 268 268 268 268 268 269 269 270 270 271 272 272 273 273 274 274 274 274 273 273 272 272 272 272 273 273 274 274 274 274 274 274 274 274 275 276 277 278 279 281 282 283 283 283 283 283 282 282 281 280 279
330 326 322 318 315 311 308 304 300 296 293 290 287 284 282 281 280 280 280 281 281 281 281 280 278 276 274 272 271 270 270 270 269 269 269 270 270 269 269 269 269 269 269 269 270 270 271 271 272 272 272 272 272 272 273 273 272 272 272 272 272 272 273 273 273 273 274 274 274 274 274 275 275 276 277 279 280 282 283 284 285 285 285 284 283 282 281
Height
10448 10449 10451 10453 10455 10458 10461 10463 10465 10467 10470 10472 10475 10478 10482 10486 10488 10491 10494 10496 10500 10504 10507 10510 10512 10514 10515 10516 10518 10521 10523 10525 10528 10531 10535 10539 10543 10546 10548 10548 10545 10544 10545 10547 10548 10550 10551 10553 10555 10557 10560 10561 10562 10562 10563 10565 10567 10568 10568 10568 10568 10569 10570 10570 10570 10570 10568 10565 10563 10562 10561 10560 10561 10561 10561 10560 10559 10557 10555 10554 10554 10554 10554 10554 10552 10551 10550
10443 10445 10447 10447 10450 10454 10457 10459 10461 10463 10465 10468 10471 10473 10477 10480 10483 10486 10488 10490 10494 10497 10500 10502 10504 10506 10507 10509 10513 10515 10518 10520 10523 10526 10530 10535 10540 10542 10542 10539 10536 10536 10539 10541 10543 10545 10547 10548 10550 10552 10555 10556 10556 10557 10559 10562 10563 10564 10564 10563 10564 10564 10564 10565 10565 10564 10562 10560 10559 10558 10557 10556 10556 10556 10556 10556 10555 10554 10552 10550 10550 10549 10549 10550 10549 10546 10544
10440 10442 10441 10442 10445 10449 10453 10455 10456 10458 10461 10464 10466 10469 10472 10475 10477 10480 10482 10484 10488 10491 10494 10496 10497 10499 10501 10504 10507 10511 10514 10516 10518 10521 10525 10529 10532 10532 10531 10529 10529 10530 10533 10535 10538 10540 10541 10541 10543 10546 10548 10549 10550 10552 10554 10555 10557 10557 10556 10556 10557 10557 10557 10557 10557 10557 10556 10554 10553 10552 10552 10552 10552 10551 10551 10551 10551 10550 10548 10546 10545 10545 10545 10545 10544 10543 10541
10435 10436 10435 10438 10441 10444 10446 10448 10451 10454 10456 10459 10461 10464 10466 10469 10472 10474 10477 10480 10483 10486 10488 10490 10492 10495 10498 10500 10503 10506 10509 10511 10513 10515 10519 10521 10522 10523 10523 10523 10524 10526 10528 10530 10532 10533 10534 10535 10536 10539 10540 10542 10543 10545 10546 10547 10548 10548 10548 10548 10549 10549 10549 10549 10550 10549 10549 10548 10547 10547 10547 10547 10547 10547 10546 10545 10545 10543 10542 10540 10540 10540 10540 10539 10538 10537 10536
10428 10428 10429 10433 10435 10436 10438 10443 10447 10449 10451 10453 10455 10458 10461 10463 10466 10469 10472 10476 10478 10481 10484 10487 10490 10492 10494 10495 10497 10500 10502 10504 10506 10509 10511 10513 10514 10515 10516 10517 10518 10520 10522 10523 10525 10526 10526 10527 10529 10531 10532 10534 10535 10536 10537 10538 10540 10540 10541 10541 10541 10542 10543 10543 10544 10543 10541 10541 10542 10542 10542 10541 10542 10542 10540 10539 10538 10537 10536 10535 10534 10533 10533 10532 10531 10530 10530
10421 10422 10423 10425 10428 10429 10432 10437 10441 10443 10445 10447 10449 10453 10455 10457 10460 10464 10467 10470 10473 10477 10481 10484 10486 10488 10489 10490 10491 10492 10493 10496 10499 10502 10504 10505 10505 10507 10508 10509 10511 10513 10514 10515 10517 10518 10518 10519 10520 10522 10523 10525 10527 10528 10529 10531 10532 10533 10534 10535 10535 10536 10537 10538 10538 10537 10536 10535 10536 10536 10536 10535 10535 10535 10534 10533 10531 10531 10530 10529 10528 10527 10524 10523 10523 10523 10523
10414 10416 10416 10418 10421 10424 10427 10431 10435 10438 10440 10441 10444 10446 10448 10451 10454 10456 10460 10464 10469 10473 10475 10478 10480 10482 10484 10485 10485 10485 10486 10488 10491 10494 10496 10496 10497 10499 10500 10502 10504 10505 10506 10508 10509 10509 10510 10511 10512 10512 10513 10516 10519 10521 10523 10524 10526 10527 10528 10528 10529 10529 10530 10531 10532 10532 10531 10530 10530 10530 10529 10529 10528 10527 10527 10527 10525 10524 10523 10522 10521 10519 10513 10511 10514 10516 10515
10408 10409 10409 10410 10414 10417 10421 10425 10429 10433 10436 10437 10438 10439 10442 10445 10448 10450 10454 10459 10464 10466 10467 10469 10472 10475 10477 10479 10480 10479 10479 10481 10483 10486 10488 10489 10490 10492 10494 10495 10496 10497 10498 10500 10500 10501 10502 10503 10503 10503 10506 10510 10513 10515 10516 10518 10518 10519 10520 10520 10521 10522 10523 10524 10525 10526 10526 10525 10524 10523 10522 10522 10522 10521 10520 10520 10518 10517 10516 10514 10512 10510 10505 10501 10503 10506 10506
10402 10403 10404 10404 10407 10412 10416 10420 10424 10428 10430 10431 10432 10433 10436 10440 10443 10446 10450 10454 10457 10459 10461 10463 10465 10467 10469 10471 10472 10473 10473 10473 10475 10478 10480 10481 10483 10484 10485 10488 10490 10490 10490 10491 10492 10493 10494 10495 10494 10494 10499 10506 10508 10508 10509 10510 10510 10511 10512 10512 10513 10513 10514 10515 10516 10518 10519 10519 10517 10516 10514 10513 10513 10513 10513 10513 10511 10510 10509 10507 10504 10503 10501 10498 10496 10497 10497
10396 10398 10399 10399 10401 10406 10411 10415 10419 10421 10422 10423 10425 10428 10431 10435 10439 10442 10445 10447 10449 10452 10455 10457 10459 10461 10462 10463 10464 10466 10466 10467 10468 10470 10471 10472 10473 10475 10477 10481 10483 10483 10483 10483 10485 10486 10487 10487 10488 10489 10493 10498 10500 10501 10502 10502 10503 10504 10505 10505 10505 10504 10504 10504 10505 10506 10508 10509 10508 10506 10505 10504 10503 10504 10504 10504 10503 10502 10501 10500 10498 10496 10495 10493 10491 10490 10490
10390 10392 10394 10396 10397 10399 10403 10408 10412 10413 10414 10417 10421 10424 10428 10431 10434 10436 10438 10440 10442 10444 10447 10450 10452 10454 10455 10456 10457 10459 10460 10460 10461 10462 10464 10465 10466 10468 10470 10472 10475 10476 10476 10477 10479 10480 10481 10482 10483 10484 10486 10489 10491 10493 10493 10494 10494 10495 10496 10497 10496 10496 10495 10494 10494 10495 10495 10496 10496 10496 10496 10495 10495 10495 10495 10494 10494 10494 10493 10492 10490 10489 10488 10487 10486 10485 10484
10384 10386 10388 10390 10391 10392 10395 10400 10404 10405 10406 10411 10416 10420 10423 10424 10426 10429 10431 10433 10436 10438 10439 10441 10444 10446 10448 10448 10450 10451 10452 10453 10454 10455 10457 10459 10460 10460 10463 10465 10467 10469 10470 10471 10472 10473 10474 10475 10476 10477 10478 10479 10481 10482 10483 10483 10483 10484 10485 10486 10487 10487 10487 10486 10485 10485 10484 10484 10484 10484 10485 10485 10486 10486 10486 10486 10485 10484 10484 10483 10482 10481 10480 10479 10478 10477 10476
10377 10378 10380 10383 10385 10386 10388 10391 10394 10396 10399 10403 10409 10413 10416 10417 10419 10422 10423 10425 10428 10430 10431 10433 10435 10438 10440 10441 10443 10444 10444 10446 10448 10449 10451 10453 10453 10454 10457 10460 10461 10462 10463 10464 10464 10465 10465 10465 10466 10467 10468 10469 10470 10471 10472 10472 10473 10473 10474 10475 10475 10476 10477 10476 10476 10475 10474 10474 10473 10473 10474 10474 10475 10475 10475 10476 10475 10474 10473 10472 10472 10471 10469 10469 10468 10466 10465
10370 10371 10373 10375 10377 10378 10380 10383 10386 10388 10391 10395 10398 10403 10407 10411 10413 10414 10415 10417 10419 10421 10423 10425 10427 10430 10432 10435 10437 10438 10439 10440 10441 10443 10445 10446 10447 10448 10450 10452 10454 10455 10455 10455 10456 10456 10455 10456 10457 10458 10459 10460 10461 10461 10462 10462 10463 10463 10464 10464 10464 10465 10466 10466 10465 10465 10464 10464 10463 10463 10463 10463 10463 10463 10463 10463 10463 10463 10462 10461 10461 10460 10458 10458 10458 10456 10454
10364 10365 10366 10367 10369 10370 10373 10375 10378 10380 10382 10385 10388 10392 10397 10401 10404 10406 10407 10408 10410 10412 10414 10416 10418 10421 10424 10427 10429 10430 10431 10432 10433 10434 10436 10438 10438 10439 10441 10443 10444 10445 10446 10446 10446 10446 10446 10447 10448 10450 10451 10452 10452 10452 10452 10452 10453 10454 10454 10455 10455 10455 10454 10454 10454 10453 10453 10453 10453 10452 10451 10450 10450 10450 10450 10450 10450 10450 10450 10450 10449 10449 10448 10447 10447 10446 10444
10356 10357 10358 10358 10360 10362 10365 10368 10369 10371 10374 10376 10378 10381 10385 10390 10394 10397 10398 10400 10402 10404 10405 10407 10409 10411 10414 10417 10419 10420 10421 10423 10424 10425 10427 10428 10429 10430 10431 10432 10434 10435 10436 10437 10437 10438 10439 10440 10441 10441 10442 10442 10442 10442 10442 10443 10444 10445 10446 10445 10444 10444 10443 10443 10442 10442 10441 10441 10441 10440 10440 10439 10438 10438 10437 10437 10437 10437 10437 10437 10437 10436 10436 10435 10435 10435 10434
10347 10348 10349 10350 10352 10355 10358 10360 10361 10363 10365 10366 10368 10371 10374 10378 10382 10386 10389 10391 10393 10395 10396 10398 10400 10402 10404 10406 10408 10410 10411 10412 10413 10415 10417 10419 10420 10420 10421 10421 10422 10424 10425 10427 10428 10429 10430 10431 10432 10432 10431 10431 10431 10432 10433 10434 10435 10435 10434 10433 10432 10432 10431 10431 10431 10431 10430 10429 10429 10428 10428 10427 10426 10426 10425 10424 10423 10423 10423 10423 10423 10422 10422 10421 10420 10420 10420
10338 10340 10341 10342 10344 10346 10348 10350 10353 10354 10356 10357 10359 10361 10363 10365 10369 10373 10376 10380 10383 10386 10388 10389 10391 10392 10394 10395 10397 10399 10400 10402 10403 10405 10408 10410 10411 10411 10411 10412 10413 10415 10416 10417 10418 10418 10420 10421 10421 10421 10421 10421 10422 10423 10424 10424 10424 10423 10422 10421 10421 10420 10420 10420 10420 10419 10419 10418 10418 10418 10417 10416 10415 10414 10413 10411 10410 10409 10408 10407 10407 10407 10406 10406 10405 10404 10404
10330 10332 10333 10333 10334 10336 10338 10341 10344 10346 10347 10348 10350 10351 10353 10355 10357 10360 10363 10367 10372 10376 10379 10381 10382 10383 10384 10385 10387 10388 10390 10392 10394 10395 10398 10400 10402 10402 10402 10403 10404 10406 10407 10407 10408 10409 10410 10410 10410 10410 10411 10412 10413 10413 10413 10413 10412 10411 10411 10410 10410 10410 10410 10409 10409 10409 10408 10407 10407 10407 10406 10405 10403 10402 10401 10400 10398 10396 10394 10393 10392 10391 10391 10391 10390 10390 10389
10320 10322 10323 10324 10324 10326 10328 10331 10333 10336 10338 10339 10341 10342 10343 10345 10347 10349 10351 10354 10358 10363 10366 10369 10371 10373 10375 10377 10378 10378 10380 10382 10384 10386 10388 10390 10391 10392 10393 10393 10394 10396 10398 10398 10398 10399 10400 10400 10400 10401 10401 10402 10403 10403 10403 10402 10402 10401 10401 10400 10399 10399 10399 10399 10398 10398 10397 10397 10396 10395 10394 10392 10391 10390 10389 10387 10386 10384 10382 10381 10379 10378 10377 10376 10375 10375 10375
10311 10313 10314 10314 10316 10317 10320 10321 10323 10325 10328 10330 10331 10333 10334 10335 10336 10338 10340 10343 10346 10349 10353 10356 10360 10364 10366 10367 10368 10368 10369 10371 10374 10376 10378 10380 10382 10383 10383 10384 10385 10386 10388 10388 10388 10390 10390 10391 10391 10392 10392 10393 10393 10393 10393 10392 10392 10391 10391 10390 10389 10389 10389 10388 10388 10387 10386 10385 10384 10383 10381 10379 10378 10377 10376 10375 10373 10372 10370 10369 10368 10366 10364 10363 10361 10361 10361
10301 10303 10304 10305 10307 10308 10310 10312 10313 10315 10318 10320 10322 10323 10324 10326 10327 10328 10330 10333 10335 10338 10341 10344 10348 10351 10353 10355 10356 10356 10358 10360 10363 10366 10368 10371 10372 10372 10372 10372 10373 10375 10377 10378 10378 10379 10380 10380 10381 10381 10382 10382 10382 10382 10382 10381 10380 10380 10379 10379 10378 10378 10377 10377 10376 10376 10375 10373 10372 10370 10369 10367 10365 10363 10362 10361 10360 10359 10357 10355 10354 10353 10352 10350 10348 10347 10346
10292 10294 10295 10296 10297 10298 10299 10300 10302 10304 10307 10309 10311 10313 10314 10316 10318 10319 10321 10323 10326 10328 10330 10333 10336 10338 10339 10340 10342 10343 10346 10350 10353 10357 10360 10361 10361 10359 10358 10359 10361 10364 10365 10366 10368 10368 10368 10369 10369 10369 10369 10369 10369 10369 10369 10368 10368 10367 10366 10366 10365 10365 10365 10364 10363 10363 10362 10360 10359 10358 10356 10355 10353 10350 10348 10347 10347 10345 10343 10340 10338 10337 10337 10337 10335 10334 10332
10284 10285 10286 10287 10288 10288 10288 10289 10291 10294 10295 10297 10299 10301 10303 10305 10308 10310 10312 10315 10317 10319 10321 10322 10323 10325 10326 10327 10329 10331 10333 10336 10340 10345 10349 10349 10348 10346 10344 10344 10349 10353 10354 10355 10356 10357 10357 10357 10356 10357 10357 10357 10357 10356 10356 10355 10355 10354 10354 10353 10352 10352 10351 10351 10350 10349 10348 10347 10346 10345 10343 10342 10341 10338 10335 10333 10331 10331 10330 10328 10324 10321 10320 10320 10321 10321 10320
10275 10275 10276 10277 10278 10279 10279 10279 10281 10283 10283 10284 10286 10288 10291 10294 10297 10299 10302 10305 10308 10310 10310 10310 10309 10311 10313 10316 10319 10320 10322 10323 10327 10331 10334 10335 10335 10333 10330 10332 10337 10340 10341 10343 10344 10344 10344 10344 10343 10344 10344 10344 10344 10344 10343 10343 10343 10342 10341 10340 10340 10339 10338 10337 10336 10335 10335 10334 10332 10331 10330 10328 10327 10325 10323 10320 10316 10314 10314 10314 10313 10310 10307 10305 10304 10305 10306
10266 10266 10266 10266 10267 10269 10269 10269 10270 10271 10272 10273 10276 10278 10280 10282 10285 10287 10290 10293 10296 10297 10298 10297 10297 10298 10300 10304 10307 10309 10311 10313 10314 10316 10319 10321 10321 10320 10319 10321 10324 10325 10326 10328 10329 10330 10331 10330 10329 10330 10331 10331 10331 10331 10330 10330 10330 10329 10328 10327 10327 10326 10324 10323 10322 10322 10321 10320 10319 10317 10316 10314 10312 10311 10309 10307 10304 10301 10298 10297 10297 10297 10296 10295 10294 10292 10290
10257 10257 10257 10257 10258 10259 10260 10259 10260 10260 10261 10262 10265 10267 10269 10270 10271 10274 10277 10280 10282 10283 10284 10285 10286 10287 10289 10291 10294 10296 10299 10301 10303 10304 10305 10307 10307 10307 10308 10310 10311 10311 10313 10314 10315 10315 10316 10315 10315 10316 10316 10317 10317 10317 10317 10317 10317 10316 10315 10314 10313 10312 10310 10309 10309 10308 10307 10306 10304 10303 10301 10300 10298 10296 10295 10293 10291 10289 10286 10283 10281 10280 10280 10281 10282 10282 10280
10248 10249 10250 10249 10250 10250 10251 10251 10251 10252 10252 10251 10252 10254 10257 10259 10261 10263 10266 10267 10269 10270 10271 10273 10275 10275 10276 10279 10281 10284 10287 10289 10290 10291 10292 10293 10295 10296 10297 10298 10298 10299 10300 10301 10301 10302 10302 10301 10301 10302 10302 10302 10303 10303 10303 10304 10304 10302 10301 10300 10299 10298 10297 10296 10296 10295 10293 10292 10290 10289 10287 10285 10284 10282 10281 10279 10277 10275 10274 10272 10270 10268 10265 10264 10264 10265 10267
10239 10240 10241 10242 10242 10242 10243 10243 10243 10243 10243 10242 10241 10243 10246 10249 10251 10253 10255 10256 10256 10258 10261 10263 10264 10265 10265 10267 10269 10272 10274 10276 10278 10279 10280 10281 10283 10284 10285 10286 10287 10288 10288 10289 10289 10290 10289 10289 10289 10288 10288 10288 10289 10289 10290 10291 10290 10289 10287 10286 10285 10285 10284 10284 10283 10282 10280 10279 10277 10276 10274 10272 10271 10269 10268 10266 10265 10263 10262 10260 10259 10257 10255 10252 10248 10248 10249
10232 10232 10233 10234 10235 10235 10235 10235 10235 10234 10234 10234 10234 10236 10237 10239 10241 10243 10244 10245 10245 10248 10251 10253 10255 10255 10256 10257 10258 10260 10262 10264 10266 10267 10268 10269 10271 10272 10272 10274 10275 10276 10276 10277 10277 10277 10277 10277 10277 10276 10275 10275 10276 10277 10277 10277 10277 10276 10274 10273 10272 10272 10272 10271 10270 10269 10268 10266 10265 10263 10261 10260 10258 10257 10256 10254 10253 10251 10250 10249 10247 10245 10243 10240 10238 10235 10235
10227 10226 10226 10226 10227 10227 10227 10227 10226 10226 10226 10227 10229 10230 10230 10230 10231 10233 10234 10236 10237 10239 10241 10243 10245 10246 10247 10248 10248 10250 10251 10253 10254 10256 10257 10259 10260 10260 10261 10262 10263 10264 10265 10265 10265 10265 10265 10265 10265 10264 10264 10264 10264 10265 10265 10265 10265 10264 10263 10261 10260 10260 10259 10259 10258 10257 10256 10255 10253 10252 10250 10248 10247 10246 10245 10243 10242 10240 10239 10238 10236 10234 10231 10229 10228 10226 10224
10220 10220 10219 10219 10219 10219 10219 10219 10219 10219 10219 10221 10222 10223 10223 10223 10223 10224 10225 10228 10230 10231 10232 10234 10236 10237 10238 10239 10240 10241 10242 10243 10244 10245 10247 10249 10249 10250 10251 10252 10253 10254 10254 10254 10254 10254 10254 10254 10254 10254 10253 10253 10253 10254 10254 10254 10254 10253 10252 10251 10249 10249 10248 10248 10247 10246 10245 10244 10242 10241 10239 10238 10237 10235 10234 10233 10231 10230 10229 10227 10225 10222 10220 10219 10218 10216 10214
10214 10214 10213 10213 10212 10212 10212 10212 10212 10212 10213 10214 10215 10216 10217 10217 10217 10217 10218 10220 10222 10224 10225 10226 10227 10228 10229 10230 10231 10232 10233 10234 10235 10236 10238 10239 10240 10241 10242 10242 10243 10243 10244 10244 10244 10244 10245 10244 10244 10243 10243 10243 10243 10244 10244 10244 10243 10242 10241 10241 10240 10239 10238 10237 10236 10235 10234 10233 10232 10231 10229 10228 10227 10225 10224 10223 10222 10220 10219 10217 10215 10212 10210 10209 10208 10207 10205
10209 10208 10207 10207 10206 10206 10206 10206 10205 10205 10206 10208 10209 10209 10211 10212 10212 10211 10211 10212 10214 10217 10218 10219 10220 10220 10221 10222 10223 10223 10224 10225 10226 10227 10229 10230 10231 10232 10232 10233 10233 10234 10234 10234 10234 10235 10235 10234 10233 10233 10233 10233 10234 10234 10234 10233 10232 10232 10231 10231 10230 10229 10228 10227 10226 10225 10224 10223 10222 10221 10220 10218 10217 10215 10214 10213 10213 10211 10210 10208 10206 10203 10201 10200 10199 10198 10196
10203 10202 10201 10201 10201 10201 10201 10200 10200 10200 10201 10202 10203 10204 10205 10206 10207 10206 10206 10207 10208 10210 10211 10211 10212 10213 10214 10214 10215 10216 10217 10218 10218 10219 10220 10221 10222 10223 10224 10224 10224 10224 10224 10224 10225 10226 10225 10224 10224 10224 10224 10224 10224 10224 10224 10223 10222 10222 10222 10221 10221 10220 10219 10218 10217 10216 10215 10214 10212 10211 10210 10208 10207 10205 10204 10204 10203 10202 10201 10199 10197 10195 10193 10191 10190 10190 10188
10198 10197 10195 10195 10196 10197 10197 10195 10195 10195 10196 10197 10198 10198 10199 10200 10201 10201 10201 10202 10203 10204 10204 10205 10206 10206 10207 10207 10208 10209 10210 10210 10210 10211 10212 10213 10214 10215 10215 10215 10216 10215 10215 10216 10217 10216 10216 10215 10215 10215 10215 10215 10215 10215 10215 10214 10213 10212 10212 10212 10211 10211 10210 10209 10208 10207 10206 10205 10204 10202 10201 10199 10198 10196 10195 10195 10194 10193 10192 10190 10189 10187 10185 10183 10182 10181 10180
10193 10192 10191 10191 10191 10193 10192 10191 10190 10191 10192 10192 10193 10193 10193 10194 10195 10195 10196 10197 10198 10199 10199 10199 10200 10200 10201 10201 10202 10202 10203 10203 10203 10204 10204 10205 10206 10207 10207 10207 10207 10208 10208 10208 10208 10208 10207 10206 10206 10206 10206 10207 10206 10206 10206 10205 10204 10203 10203 10203 10202 10202 10201 10200 10199 10198 10197 10196 10195 10193 10192 10191 10189 10188 10187 10186 10186 10185 10184 10182 10181 10180 10178 10176 10174 10174 10173
10189 10188 10187 10186 10187 10188 10188 10187 10187 10187 10188 10188 10188 10188 10188 10189 10189 10190 10190 10192 10193 10193 10193 10193 10194 10194 10194 10194 10195 10195 10195 10196 10196 10197 10197 10198 10198 10199 10200 10200 10200 10200 10200 10200 10200 10199 10199 10198 10198 10198 10198 10198 10198 10198 10197 10196 10195 10194 10194 10194 10194 10193 10192 10191 10191 10190 10189 10188 10186 10185 10184 10183 10182 10181 10179 10178 10177 10177 10176 10175 10174 10172 10171 10169 10168 10167 10166
10185 10184 10183 10183 10183 10183 10183 10183 10183 10183 10183 10184 10183 10183 10183 10184 10184 10184 10185 10186 10187 10187 10187 10187 10187 10188 10188 10188 10189 10188 10189 10189 10189 10189 10190 10190 10191 10192 10192 10193 10193 10193 10193 10192 10192 10192 10191 10191 10190 10190 10190 10190 10190 10190 10189 10188 10187 10186 10186 10186 10185 10185 10184 10183 10183 10182 10181 10180 10178 10177 10176 10176 10175 10174 10172 10171 10170 10169 10168 10167 10166 10165 10164 10162 10161 10160 10159
10182 10180 10179 10179 10178 10178 10178 10178 10179 10178 10179 10179 10179 10179 10179 10179 10179 10179 10179 10180 10182 10182 10182 10181 10181 10182 10182 10183 10183 10182 10182 10182 10182 10182 10183 10184 10184 10185 10185 10185 10185 10185 10185 10185 10184 10184 10184 10183 10183 10183 10182 10182 10182 10182 10181 10180 10179 10179 10178 10178 10177 10177 10176 10176 10175 10174 10174 10173 10172 10171 10169 10169 10168 10167 10165 10164 10163 10162 10161 10161 10160 10158 10157 10156 10155 10154 10153
10178 10177 10176 10175 10175 10174 10174 10174 10174 10174 10174 10175 10175 10175 10175 10175 10174 10174 10174 10175 10176 10177 10177 10176 10176 10176 10176 10177 10177 10176 10176 10176 10176 10176 10177 10177 10178 10178 10178 10178 10178 10178 10178 10178 10177 10177 10177 10176 10176 10176 10175 10174 10174 10174 10174 10173 10172 10172 10171 10171 10170 10169 10169 10169 10168 10168 10167 10166 10165 10164 10163 10162 10162 10161 10159 10158 10156 10155 10154 10154 10154 10153 10151 10149 10148 10147 10147
10175 10174 10173 10172 10171 10170 10170 10170 10170 10170 10170 10170 10170 10171 10171 10171 10170 10170 10169 10169 10170 10171 10171 10171 10171 10171 10171 10171 10171 10170 10170 10170 10170 10170 10170 10171 10172 10172 10171 10171 10171 10171 10171 10171 10171 10170 10170 10169 10169 10169 10168 10167 10167 10167 10167 10166 10166 10165 10164 10164 10163 10163 10162 10162 10161 10161 10161 10160 10159 10158 10158 10157 10156 10155 10153 10152 10151 10149 10148 10147 10147 10147 10146 10144 10143 10142 10141
10173 10171 10170 10169 10167 10167 10166 10166 10166 10166 10166 10166 10165 10165 10166 10166 10166 10165 10165 10164 10164 10165 10165 10166 10166 10165 10165 10166 10166 10165 10164 10163 10164 10164 10165 10165 10166 10165 10164 10164 10164 10165 10165 10165 10165 10164 10163 10163 10163 10162 10161 10161 10161 10160 10160 10160 10159 10159 10158 10157 10157 10156 10155 10155 10155 10154 10154 10154 10153 10153 10152 10151 10150 10149 10148 10146 10145 10144 10143 10142 10141 10141 10141 10140 10138 10136 10135
10170 10168 10167 10166 10165 10163 10163 10162 10162 10162 10162 10161 10161 10161 10161 10161 10161 10161 10161 10160 10159 10159 10159 10160 10160 10159 10159 10160 10161 10161 10159 10157 10157 10158 10159 10160 10159 10159 10158 10158 10158 10158 10158 10158 10158 10157 10156 10156 10156 10155 10155 10155 10154 10154 10153 10153 10153 10152 10152 10151 10150 10150 10149 10149 10149 10148 10148 10148 10147 10147 10146 10145 10144 10143 10142 10141 10140 10139 10138 10136 10135 10135 10135 10134 10133 10132 10131
10168 10166 10164 10163 10162 10161 10160 10159 10159 10158 10157 10157 10157 10157 10157 10156 10156 10156 10156 10155 10155 10154 10154 10154 10154 10154 10153 10153 10154 10154 10154 10153 10152 10152 10152 10153 10153 10153 10152 10152 10152 10152 10152 10152 10151 10151 10151 10150 10150 10149 10149 10148 10148 10148 10147 10147 10146 10146 10146 10145 10145 10144 10144 10143 10143 10142 10142 10142 10141 10141 10140 10140 10139 10138 10136 10136 10135 10134 10133 10132 10130 10129 10129 10129 10128 10127 10126
10165 10163 10161 10160 10158 10158 10157 10156 10155 10154 10154 10153 10153 10153 10153 10152 10152 10151 10150 10150 10149 10149 10148 10149 10149 10149 10149 10148 10147 10147 10147 10148 10148 10147 10146 10146 10147 10147 10146 10146 10146 10146 10146 10146 10145 10145 10145 10144 10144 10143 10143 10142 10142 10142 10141 10141 10140 10140 10140 10139 10139 10138 10138 10138 10137 10137 10136 10136 10135 10135 10134 10134 10133 10133 10132 10131 10131 10130 10129 10127 10126 10124 10123 10123 10122 10122 10121
10161 10160 10159 10157 10155 10154 10153 10152 10151 10151 10150 10148 10148 10147 10147 10147 10147 10147 10146 10145 10144 10144 10143 10143 10144 10144 10143 10142 10141 10141 10141 10142 10142 10142 10141 10140 10140 10141 10141 10140 10140 10140 10140 10140 10139 10139 10139 10138 10138 10138 10137 10137 10136 10136 10135 10135 10134 10134 10133 10133 10133 10133 10133 10132 10132 10131 10131 10130 10129 10128 10128 10128 10127 10127 10127 10127 10126 10126 10124 10123 10122 10121 10119 10118 10117 10116 10116
10158 10157 10155 10154 10152 10150 10149 10148 10148 10147 10146 10145 10143 10142 10142 10141 10141 10141 10141 10140 10140 10140 10139 10139 10138 10138 10137 10137 10136 10135 10135 10135 10136 10136 10135 10135 10135 10134 10135 10135 10135 10134 10134 10134 10134 10133 10133 10133 10132 10132 10132 10131 10131 10130 10130 10129 10128 10128 10128 10127 10127 10127 10127 10127 10127 10126 10126 10125 10124 10123 10122 10122 10121 10121 10121 10121 10121 10120 10120 10119 10118 10117 10116 10115 10113 10112 10111
10155 10153 10152 10151 10149 10148 10146 10145 10144 10143 10142 10141 10139 10138 10138 10137 10136 10135 10135 10134 10134 10134 10135 10134 10133 10132 10132 10131 10130 10129 10129 10130 10130 10129 10129 10129 10129 10129 10129 10129 10129 10129 10128 10128 10128 10128 10128 10127 10127 10127 10126 10126 10125 10125 10124 10124 10123 10123 10122 10122 10121 10121 10121 10121 10121 10121 10121 10120 10119 10118 10117 10116 10116 10116 10115 10115 10115 10115 10114 10114 10113 10112 10112 10111 10110 10109 10108
10152 10149 10148 10147 10146 10145 10143 10142 10140 10139 10138 10137 10136 10134 10133 10133 10132 10131 10130 10129 10128 10128 10129 10128 10127 10127 10126 10125 10124 10123 10123 10124 10124 10123 10123 10123 10123 10123 10123 10123 10123 10123 10123 10123 10122 10122 10122 10122 10122 10121 10121 10120 10120 10120 10119 10119 10118 10118 10117 10116 10116 10116 10116 10116 10115 10115 10115 10115 10114 10113 10113 10112 10111 10110 10110 10109 10109 10109 10109 10108 10108 10108 10107 10106 10106 10106 10105
10149 10146 10144 10142 10141 10140 10139 10138 10137 10136 10135 10134 10133 10131 10130 10129 10128 10127 10125 10124 10123 10123 10122 10122 10122 10121 10120 10119 10118 10117 10117 10118 10118 10118 10117 10117 10117 10117 10117 10117 10117 10117 10117 10117 10117 10116 10116 10116 10116 10116 10115 10115 10115 10114 10114 10114 10113 10112 10112 10112 10111 10111 10111 10110 10110 10110 10110 10109 10109 10109 10108 10107 10107 10106 10105 10104 10104 10103 10103 10103 10103 10102 10102 10102 10101 10101 10101
10147 10143 10141 10138 10136 10135 10134 10133 10132 10131 10130 10129 10128 10127 10126 10125 10123 10122 10121 10120 10118 10117 10117 10116 10116 10115 10114 10113 10112 10112 10111 10111 10112 10112 10111 10110 10110 10111 10111 10111 10111 10111 10111 10111 10110 10110 10110 10110 10110 10110 10110 10110 10109 10109 10109 10108 10108 10107 10107 10107 10106 10106 10106 10105 10105 10104 10104 10104 10104 10104 10103 10103 10102 10102 10101 10100 10100 10099 10098 10098 10098 10097 10097 10097 10096 10096 10096